Погода в Курмач-Байголе

Россия / Республика Алтай     52°07′36″N   87°39′31″E
темп.,
°C
ветер,
м/с
пор.,
м/с
влажн.,
%
обл.,
%
осадки,
мм/ч
давл.,
гПа
погр.,
м
8 мая, сб
сб801:00+9юз1196100 1.9 101916
04:00+7юз119698 0.1 101915
07:00+8ююз139315 0.1 1020102
10:00+13зюз36632 0.0 10201164
13:00+16з46435 0.0 10191848
16:00+17з46373 0.0 10181779
19:00+15зсз36510 0.0 1018558
22:00+8ю22750 0.0 102018
9 мая, вс
вс901:00+7ююз22795 0.0 102016
04:00+6ююз22795 0.0 101930
07:00+8ююз24725 0.0 1019120
10:00+16зюз35445 0.0 1016929
13:00+19з463628 0.0 10142547
16:00+19зсз583617 0.0 10132640
19:00+14с375994 0.0 1014535
22:00+9ссв367293 0.0 1016207
10 мая, пн
пн1001:00+7с247275 0.0 1016161
04:00+2ссв23953 0.0 101763
07:00+5ссв23834 0.0 1018185
10:00+11св34592 0.0 1016875
13:00+15св4543100 0.0 10131390
16:00+17св4533100 0.0 10101790
19:00+12св61248100 0.0 1010648
22:00+6св2369100 0.0 101257
11 мая, вт
вт1101:00+4св2278100 0.0 101239
04:00+5св2275100 0.0 101187
07:00+6ссв127099 0.0 1011112
10:00+9св126198 0.0 1011277
13:00+13св225119 0.1 1010536
16:00+18ссв224516 0.0 10081455
19:00+13з2467100 0.1 1010105
22:00+9юз3781100 0.1 1013354
12 мая, ср
ср1201:00+8ююз1290100 0.1 101457
04:00+7зюз1197100 0.8 101320
07:00+7с1196100 2.2 101348
10:00+8ссв1294100 1.0 1013189
13:00+8зюз1194100 2.5 1014143
16:00+8юз2292100 1.5 1014337
19:00+8юз1196100 3.6 101556
22:00+7ю1196100 0.3 101722